Regional Weather Roundup
Issued by NWS Mobile, AL

Home | Current Version | Previous Version | Text Only | Print | Product List | Glossary On
Versions: 1 2 3 4 5 6 7 8 9 10 11 12 13 14 15 16 17 18 19 20 21 22 23 24 25 26 27
000
ASUS44 KMOB 061112
RWRMOB
REGIONAL WEATHER ROUNDUP
NATIONAL WEATHER SERVICE MOBILE AL
500 AM CST TUE DEC 06 2016

NOTE: "FAIR" INDICATES FEW OR NO CLOUDS BELOW 12,000 FEET WITH NO
      SIGNIFICANT WEATHER AND/OR OBSTRUCTIONS TO VISIBILITY.

  * THESE STATIONS ARE PART OF THE UNIVERSITY OF SOUTH ALABAMA
    MESONET AND ARE NOT UNDER NWS OR FAA QUALITY CONTROL.

ALZ061>064-061200-
COASTAL ALABAMA

CITY           SKY/WX    TMP DP  RH WIND       PRES   REMARKS
MOBILE REG APT PTCLDY    64  61  90 SW8       29.72R
BROOKLEY FIELD PTCLDY    66  63  90 SW9G20    29.73R
USA CAMPUS*    NOT AVBL
DOG RIVER*     NOT AVBL


CITY           SKY/WX    TMP DP  RH WIND       PRES   REMARKS
GULF SHORES    CLOUDY    64  64 100 W22       29.74R

$$

ALZ051>060-061200-
INTERIOR SOUTHWEST AND SOUTH CENTRAL ALABAMA

CITY           SKY/WX    TMP DP  RH WIND       PRES   REMARKS
GREENVILLE     FOG       62  59  90 S5        29.66S VSB 1/2
EVERGREEN      CLOUDY    64  62  93 S6        29.67S
ATMORE*          N/A    N/A N/A N/A SW10      29.72R
ANDALUSIA/OPP  CLOUDY    72  67  84 SW13G20   29.69R
ANDALUSIA*       N/A     68  68 100 SW15      29.69R
FLORALA APT    CLOUDY    70  67  90 SW8G20    29.71R
FLORALA*         N/A     70  68  94 SE6       30.32R

$$

FLZ001>006-061200-
WESTERN FLORIDA PANHANDLE

CITY           SKY/WX    TMP DP  RH WIND       PRES   REMARKS
PENSACOLA      MOCLDY    69  65  86 W13       29.72R
NAS PENSACOLA  CLOUDY   N/A N/A N/A W12G22    29.73R
MILTON         MOCLDY    69  67  93 SW13      29.71R
WHTNG S FIELD  PTCLDY    72  68  87 SW8       29.71R


CITY           SKY/WX    TMP DP  RH WIND       PRES   REMARKS
JAY*             N/A     66  66 100 SW10      29.70S
DUKE FIELD     PTCLDY    72  68  88 SW13      29.71R
CRESTVIEW      CLOUDY    71  68  90 W15       29.72R
VALPARAISO     CLOUDY    72  69  92 SW14      29.73R
DESTIN         CLOUDY    75  72  90 W8G17     29.73R

$$

MSZ076-079-061200-
INTERIOR SOUTHEAST MISSISSIPPI

CITY           SKY/WX    TMP DP  RH WIND       PRES   REMARKS
LEAKESVILLE*   NOT AVBL
AGRICOLA*      NOT AVBL

$$

MARINE OBSERVATIONS

STATION/POSITION TIME  TEMP    WIND        PRES    WAVE
                       AIR SEA DIR/SP/G            HT/PER
                 (UTC) (F)     (DEG/KT/KT) (MB)    (FT/S)
PASCAGOULA       1048   61     250/ 16/ 25 1006.9R
PETIT BOIS ISLND 1048   62     260/ 26/ 32 1008.1R
GRAND BAY        0945   64     240/ 17     1006.0S
KATRINA CUT      1030   60     260/ 28     1006.8R
CEDAR POINT      1030   63     250/ 25     1006.8R
E DAUPHIN ISLAND 1000   64     240/ 18/ 24 1006.2R
MIDDLE BAY LIGHT 1030          230/ 26     1006.4R
USCG MOBILE BAY  1048   66 62  240/  6/ 12 1006.6R
STATE DOCKS      1042   65 64              1005.8R
MEAHER PARK      1030   66     210/ 14     1006.1R
WEEKS BAY        0945   67                   N/A
12 S ORANGE BCH  1050   67 69  260/ 25/ 29 1006.5R   7/ 6
PENSACOLA BAY    1042   68 64  250/  8/ 19 1006.1R
64 S DAUPHIN ISL 1050   69 75  270/ 23/ 29 1008.5R   6/ 6
67 S FORT MORGAN 1030   71     270/ 17     1008.1R

$$

SELECTED LOCATIONS ACROSS THE REGION

CITY           SKY/WX    TMP DP  RH WIND       PRES   REMARKS
NEW ORLEANS    MOCLDY    58  55  90 W13       29.80R
GULFPORT       PTCLDY    59  55  87 W12       29.75R
PASCAGOULA AP  PTCLDY    60  56  86 SW8G18    29.74R
PASCAGOULA*    NOT AVBL
HATTIESBURG    MOCLDY    60  56  86 W14       29.73R
LAUREL         CLOUDY    57  54  88 W9G18     29.73R
MERIDIAN       MOCLDY    63  60  90 SW8       29.65R
JACKSON        CLOUDY    53  50  89 W15G22    29.73R
MONTGOMERY     CLOUDY    57  54  89 E5        29.67S
TROY           CLOUDY    60  60 100 SE3       29.68S
ASHFORD*         N/A     68  68 100 SW15      29.69R
DOTHAN         CLOUDY    71  71 100 SW14      29.72F
PANAMA CITY    CLOUDY    74  71  91 SW13      29.72R

$$





USA.gov is the U.S. government's official web portal to all federal, state and local government web resources and services.